User: anonymous   Login
Location: Pleiades Observatory
(40.1297°N, 91.5238°W)
Time: 07:08:29
(UTC-05:00)
Language:

Cosmos 1842 Rocket - Orbit

View from above orbital plane
View from above orbital plane
View from above satellite
View from above satellite

Ground track
Ground track

The orbit data is extracted from the following two-line orbital elements,

1 17912U 87038B   15243.81214966  .00000176  00000-0  18833-4 0  9999
2 17912  82.5029 305.2001 0019237 225.5382 134.4260 14.82756110530607
Epoch (UTC): 31 August 2015 19:29:29
Eccentricity: 0.0019237
inclination: 82.5029°
perigee height: 607 km
apogee height: 634 km
right ascension of ascending node: 305.2001°
argument of perigee: 225.5382°
revolutions per day: 14.82756110
mean anomaly at epoch: 134.4260°
orbit number at epoch: 53060

The dashed part of the orbit path shows where the satellite is in the earth's shadow,  

DLR